| time (UTC) | temp F | wind direction | speed MPH | gust MPH | rain 1hr in | rain 24hr in | rain mn in | humidity % | barometer mb |
| 20260831024557 | 66 | 114 | 0.0 | 0.0 | 0.00 | 0.08 | 0.03 | 89 | 1014.2 |
| 20260831023055 | 66 | 114 | 0.0 | 1.0 | 0.00 | 0.08 | 0.03 | 89 | 1014.2 |
| 20260831021554 | 66 | 117 | 0.0 | 3.0 | 0.00 | 0.08 | 0.03 | 89 | 1014.3 |
| 20260831020054 | 66 | 124 | 0.0 | 1.0 | 0.00 | 0.08 | 0.03 | 89 | 1014.3 |
| 20260831014601 | 66 | 124 | 0.0 | 1.0 | 0.00 | 0.08 | 0.03 | 89 | 1014.2 |
| 20260831013056 | 67 | 117 | 0.0 | 0.0 | 0.00 | 0.08 | 0.03 | 89 | 1014.0 |
| 20260831011550 | 67 | 117 | 0.0 | 1.0 | 0.00 | 0.08 | 0.03 | 89 | 1014.0 |
| 20260831010107 | 67 | 117 | 0.0 | 0.0 | 0.00 | 0.08 | 0.03 | 90 | 1013.9 |
| 20260831004550 | 67 | 117 | 0.0 | 0.0 | 0.00 | 0.08 | 0.03 | 90 | 1013.7 |
| 20260831003102 | 67 | 115 | 0.0 | 0.0 | 0.00 | 0.08 | 0.03 | 89 | 1013.4 |
| 20260831001549 | 68 | 139 | 0.0 | 0.0 | 0.00 | 0.08 | 0.03 | 89 | 1013.5 |
| 20260831000051 | 68 | 115 | 0.0 | 1.0 | 0.00 | 0.08 | 0.03 | 89 | 1013.7 |
| 20260830234554 | 68 | 115 | 0.0 | 1.0 | 0.00 | 0.08 | 0.03 | 89 | 1013.5 |
| 20260830233047 | 68 | 117 | 0.0 | 3.0 | 0.00 | 0.08 | 0.03 | 90 | 1013.3 |
| 20260830231549 | 68 | 110 | 0.0 | 2.0 | 0.00 | 0.08 | 0.03 | 90 | 1013.6 |
| 20260830230049 | 68 | 114 | 0.0 | 1.0 | 0.00 | 0.08 | 0.03 | 90 | 1013.6 |
| 20260830224555 | 68 | 108 | 0.0 | 2.0 | 0.01 | 0.08 | 0.03 | 90 | 1013.7 |
| 20260830223047 | 68 | 115 | 0.0 | 2.0 | 0.01 | 0.08 | 0.03 | 91 | 1014.1 |
| 20260830221544 | 68 | 123 | 0.0 | 0.0 | 0.01 | 0.08 | 0.03 | 91 | 1014.0 |
| 20260830220046 | 68 | 117 | 0.0 | 0.0 | 0.02 | 0.08 | 0.03 | 91 | 1014.0 |
| 20260830214546 | 68 | 119 | 0.0 | 0.0 | 0.01 | 0.07 | 0.02 | 92 | 1014.0 |
| 20260830213043 | 69 | 119 | 0.0 | 0.0 | 0.01 | 0.07 | 0.02 | 92 | 1014.3 |
| 20260830211542 | 69 | 119 | 0.0 | 0.0 | 0.01 | 0.07 | 0.02 | 92 | 1014.1 |
| 20260830210051 | 69 | 119 | 0.0 | 0.0 | 0.00 | 0.06 | 0.01 | 91 | 1013.8 |
| 20260830204542 | 69 | 101 | 0.0 | 1.0 | 0.00 | 0.06 | 0.01 | 91 | 1013.6 |
| 20260830203041 | 69 | 110 | 0.0 | 2.0 | 0.00 | 0.06 | 0.01 | 91 | 1013.5 |
| 20260830201541 | 70 | 124 | 0.0 | 3.0 | 0.00 | 0.06 | 0.01 | 90 | 1013.7 |
| 20260830200057 | 70 | 117 | 0.0 | 3.0 | 0.00 | 0.06 | 0.01 | 90 | 1013.6 |
| 20260830194549 | 71 | 118 | 0.0 | 1.0 | 0.00 | 0.06 | 0.01 | 89 | 1013.6 |
| 20260830193039 | 72 | 115 | 0.0 | 1.0 | 0.00 | 0.06 | 0.01 | 88 | 1013.6 |
| 20260830191538 | 72 | 170 | 0.0 | 0.0 | 0.00 | 0.06 | 0.01 | 88 | 1013.4 |
| 20260830190039 | 73 | 188 | 0.0 | 0.0 | 0.00 | 0.06 | 0.01 | 87 | 1013.5 |
| 20260830184537 | 73 | 188 | 0.0 | 0.0 | 0.00 | 0.06 | 0.01 | 87 | 1013.6 |
| 20260830183035 | 73 | 115 | 0.0 | 0.0 | 0.00 | 0.06 | 0.01 | 87 | 1013.6 |
| 20260830181532 | 72 | 238 | 0.0 | 0.0 | 0.00 | 0.06 | 0.01 | 89 | 1013.7 |
| 20260830180030 | 71 | 238 | 0.0 | 0.0 | 0.00 | 0.06 | 0.01 | 88 | 1013.8 |
| 20260830174531 | 71 | 238 | 0.0 | 1.0 | 0.00 | 0.06 | 0.01 | 89 | 1013.9 |
| 20260830173035 | 70 | 238 | 0.0 | 0.0 | 0.00 | 0.06 | 0.01 | 88 | 1013.7 |
| 20260830171526 | 70 | 238 | 0.0 | 0.0 | 0.00 | 0.06 | 0.01 | 90 | 1013.7 |
| 20260830170023 | 69 | 238 | 0.0 | 1.0 | 0.00 | 0.06 | 0.01 | 92 | 1013.9 |
| 20260830164521 | 69 | 238 | 0.0 | 0.0 | 0.00 | 0.06 | 0.01 | 91 | 1013.9 |
| 20260830163023 | 68 | 113 | 0.0 | 0.0 | 0.00 | 0.06 | 0.01 | 86 | 1013.9 |
| 20260830161520 | 67 | 113 | 0.0 | 0.0 | 0.00 | 0.06 | 0.01 | 85 | 1014.1 |
| 20260830160019 | 66 | 113 | 0.0 | 0.0 | 0.00 | 0.06 | 0.01 | 86 | 1014.2 |
| 20260830154516 | 66 | 113 | 0.0 | 0.0 | 0.00 | 0.06 | 0.01 | 86 | 1014.2 |
| 20260830153031 | 66 | 113 | 0.0 | 0.0 | 0.00 | 0.06 | 0.01 | 86 | 1014.3 |
| 20260830151513 | 65 | 112 | 0.0 | 0.0 | 0.00 | 0.06 | 0.01 | 86 | 1014.3 |
| 20260830150013 | 65 | 112 | 0.0 | 0.0 | 0.00 | 0.06 | 0.01 | 85 | 1014.3 |
| 20260830144515 | 65 | 113 | 0.0 | 0.0 | 0.00 | 0.06 | 0.01 | 85 | 1014.2 |
| 20260830143012 | 65 | 112 | 0.0 | 0.0 | 0.00 | 0.06 | 0.01 | 85 | 1014.3 |
| 20260830141517 | 64 | 113 | 0.0 | 0.0 | 0.00 | 0.06 | 0.01 | 85 | 1014.2 |
| 20260830140011 | 64 | 113 | 0.0 | 0.0 | 0.00 | 0.06 | 0.01 | 85 | 1014.1 |
| 20260830134514 | 64 | 113 | 0.0 | 0.0 | 0.00 | 0.06 | 0.01 | 86 | 1014.0 |
| 20260830133013 | 63 | 113 | 0.0 | 0.0 | 0.00 | 0.06 | 0.01 | 86 | 1014.1 |
| 20260830131512 | 63 | 113 | 0.0 | 0.0 | 0.00 | 0.06 | 0.01 | 86 | 1014.2 |
| 20260830130008 | 63 | 113 | 0.0 | 0.0 | 0.00 | 0.06 | 0.01 | 86 | 1014.2 |
| 20260830124509 | 63 | 113 | 0.0 | 0.0 | 0.00 | 0.06 | 0.01 | 86 | 1014.2 |
| 20260830123008 | 63 | 113 | 0.0 | 0.0 | 0.00 | 0.06 | 0.01 | 86 | 1014.1 |
| 20260830121506 | 63 | 113 | 0.0 | 0.0 | 0.00 | 0.06 | 0.01 | 87 | 1014.2 |
| 20260830120007 | 63 | 122 | 0.0 | 0.0 | 0.00 | 0.06 | 0.01 | 87 | 1014.0 |
| 20260830114506 | 63 | 122 | 0.0 | 0.0 | 0.00 | 0.06 | 0.01 | 87 | 1013.9 |
| 20260830113005 | 63 | 122 | 0.0 | 0.0 | 0.00 | 0.06 | 0.01 | 87 | 1013.8 |
| 20260830111505 | 63 | 122 | 0.0 | 0.0 | 0.00 | 0.06 | 0.01 | 87 | 1013.8 |
| 20260830110004 | 63 | 122 | 0.0 | 1.0 | 0.00 | 0.06 | 0.01 | 87 | 1013.8 |
| 20260830104501 | 63 | 115 | 0.0 | 0.0 | 0.00 | 0.06 | 0.01 | 87 | 1014.0 |
| 20260830103001 | 63 | 115 | 0.0 | 0.0 | 0.00 | 0.06 | 0.01 | 88 | 1014.1 |
| 20260830101600 | 63 | 115 | 0.0 | 0.0 | 0.00 | 0.06 | 0.01 | 88 | 1014.0 |
| 20260830100105 | 63 | 115 | 0.0 | 0.0 | 0.00 | 0.06 | 0.01 | 88 | 1014.2 |
| 20260830094601 | 63 | 115 | 0.0 | 0.0 | 0.00 | 0.06 | 0.01 | 88 | 1014.1 |
| 20260830093058 | 63 | 115 | 0.0 | 0.0 | 0.00 | 0.06 | 0.01 | 88 | 1014.1 |
| 20260830091558 | 63 | 115 | 0.0 | 0.0 | 0.00 | 0.06 | 0.01 | 88 | 1014.0 |
| 20260830090055 | 63 | 115 | 0.0 | 0.0 | 0.00 | 0.06 | 0.01 | 88 | 1014.2 |
| 20260830084553 | 63 | 115 | 0.0 | 1.0 | 0.00 | 0.06 | 0.01 | 89 | 1014.4 |
| 20260830083056 | 63 | 115 | 0.0 | 0.0 | 0.00 | 0.06 | 0.01 | 89 | 1014.7 |
| 20260830081549 | 63 | 115 | 0.0 | 0.0 | 0.00 | 0.06 | 0.01 | 89 | 1015.0 |
| 20260830080055 | 63 | 115 | 0.0 | 0.0 | 0.00 | 0.06 | 0.01 | 89 | 1015.0 |
| 20260830074600 | 63 | 115 | 0.0 | 0.0 | 0.00 | 0.06 | 0.01 | 90 | 1014.9 |
| 20260830073045 | 63 | 115 | 0.0 | 1.0 | 0.00 | 0.06 | 0.01 | 90 | 1015.1 |
| 20260830071544 | 63 | 113 | 0.0 | 1.0 | 0.00 | 0.06 | 0.01 | 90 | 1015.2 |
| 20260830070042 | 63 | 94 | 0.0 | 0.0 | 0.00 | 0.06 | 0.01 | 91 | 1015.4 |
| 20260830064551 | 63 | 94 | 0.0 | 1.0 | 0.00 | 0.06 | 0.01 | 91 | 1015.9 |
| 20260830063037 | 64 | 250 | 0.0 | 0.0 | 0.00 | 0.06 | 0.01 | 91 | 1016.3 |
| 20260830061535 | 64 | 250 | 0.0 | 0.0 | 0.00 | 0.06 | 0.01 | 91 | 1016.2 |
| 20260830060033 | 64 | 250 | 0.0 | 0.0 | 0.00 | 0.06 | 0.01 | 92 | 1016.4 |
| 20260830054530 | 64 | 250 | 0.0 | 0.0 | 0.00 | 0.06 | 0.01 | 92 | 1016.9 |
| 20260830053028 | 65 | 250 | 0.0 | 1.0 | 0.00 | 0.06 | 0.01 | 92 | 1017.2 |
| 20260830051526 | 65 | 238 | 0.0 | 1.0 | 0.00 | 0.06 | 0.01 | 91 | 1017.2 |
| 20260830050027 | 66 | 264 | 0.0 | 4.0 | 0.01 | 0.06 | 0.01 | 91 | 1017.2 |
| 20260830044523 | 66 | 257 | 0.0 | 3.0 | 0.01 | 0.06 | 0.01 | 91 | 1017.0 |
| 20260830043021 | 66 | 255 | 0.0 | 0.0 | 0.02 | 0.06 | 0.01 | 91 | 1017.0 |
| 20260830041528 | 66 | 276 | 0.0 | 3.0 | 0.02 | 0.06 | 0.01 | 91 | 1017.0 |
| 20260830040023 | 67 | 252 | 0.0 | 1.0 | 0.02 | 0.05 | 0.00 | 90 | 1016.9 |
| 20260830034517 | 66 | 257 | 0.0 | 0.0 | 0.03 | 0.05 | 0.05 | 90 | 1016.8 |
| 20260830033016 | 66 | 259 | 0.0 | 0.0 | 0.03 | 0.04 | 0.04 | 91 | 1016.8 |
| 20260830031516 | 67 | 257 | 0.0 | 1.0 | 0.04 | 0.04 | 0.04 | 91 | 1016.9 |
| 20260830030016 | 67 | 257 | 0.0 | 0.0 | 0.03 | 0.03 | 0.03 | 91 | 1016.9 |